Weather Roundup
Issued by NWS

Home | Current Version | Previous Version | Text Only | Print | Product List | Glossary On
Versions: 1 2 3 4 5 6 7 8 9 10 11 12 13 14 15 16 17 18 19 20 21 22 23 24 25 26 27 28 29 30 31 32 33 34 35 36 37 38 39 40 41 42 43 44 45 46 47 48 49 50
000
NZUS93 KARX 010410
HRRWXR

CURRENT HOURLY OBSERVATIONS ACROSS
MUCH OF THE UPPER MISSISSIPPI VALLEY
NATIONAL WEATHER SERVICE LA CROSSE WI
1100 PM CDT FRI JUL 31 2015


...SOUTHEAST MINNESOTA...


CITY           SKY/WX    TMP DP  RH WIND       PRES   REMARKS
ROCHESTER      CLEAR     63  58  83 W8        30.05R
ROCHESTER/MAYO FAIR      70  56  61 W8        30.03S
WINONA         CLEAR     64  59  82 CALM      30.00S
AUSTIN         CLEAR     66  57  72 SW3       30.05R
ALBERT LEA     CLEAR     66  63  88 CALM      30.06R
DODGE CENTER   CLEAR     63  57  82 W7        30.05R
PRESTON        CLEAR     64  56  75 W8        30.05R
OWATONNA       CLEAR     63  57  82 SW7       30.04S
FARIBAULT      CLEAR     63  59  88 CALM      30.03S
$$

...ELSEWHERE IN MINNESOTA...


CITY           SKY/WX    TMP DP  RH WIND       PRES   REMARKS
MINNEAPOLIS    CLEAR     73  56  54 W7        30.00R
INTNL FALLS    CLEAR     61  52  72 W5        29.91S
DULUTH         PTCLDY    62  49  62 W8        29.94S
RED WING       CLEAR     63  57  82 CALM      29.99R
REDWOOD FALLS  CLEAR     68  60  75 S5        30.01S
MANKATO        CLEAR     70  55  60 SW6       30.03S
WORTHINGTON    CLEAR     68  57  68 SW8       30.08R
FAIRMONT       CLEAR     63  54  72 SW7       30.05S
$$

...SOUTHWEST WISCONSIN...


CITY           SKY/WX    TMP DP  RH WIND       PRES   REMARKS
LA CROSSE      CLEAR     65  57  75 E3        29.99S
PRAIRIE DU CHI CLEAR     65  56  74 CALM      30.02R
BOSCOBEL       CLEAR     60  57  89 CALM      30.01R
LONE ROCK      CLEAR     59  54  83 CALM      30.01R
PLATTEVILLE    CLEAR     65  56  73 W5        30.03R
FORT MC COY    CLEAR     55  52  88 CALM      30.01R
CAMP DOUGLAS   CLEAR     59  55  85 W2        29.98S
VIROQUA        FAIR      64  53  68 W5        30.03R
WIS DELLS      CLEAR     61  50  67 S3        30.00R
$$

...ELSEWHERE IN WISCONSIN...


CITY           SKY/WX    TMP DP  RH WIND       PRES   REMARKS
MILWAUKEE      PTCLDY    73  50  44 W8        29.96R
MADISON        CLEAR     67  51  56 W5        29.99R
GREEN BAY      MOCLDY    63  56  78 W6        29.93S
EAU CLAIRE     CLEAR     63  53  70 SW5       29.98R
BLACK RVR FLS  FAIR      55  54  96 CALM      29.98S
MEDFORD        CLEAR     62  53  71 W7        29.98R
WAUSAU         CLEAR     64  56  75 SW5       29.95S
WIS RAPIDS     CLEAR     65  51  60 W8        29.98S
MARSHFIELD     CLEAR     63  50  62 W7        29.98R
RICE LAKE      CLEAR     58  55  88 W3        30.00R
$$

...NORTHEAST IOWA...


CITY           SKY/WX    TMP DP  RH WIND       PRES   REMARKS
DECORAH        CLEAR     64  59  82 CALM      30.04R
MASON CITY     CLEAR     63  59  87 SW3       30.08R
CHARLES CITY   CLEAR     63  63 100 W5        30.07R
OELWEIN          N/A     64  61  88 W6        30.06R
$$

...ELSEWHERE IN IOWA...


CITY           SKY/WX    TMP DP  RH WIND       PRES   REMARKS
DES MOINES     PTCLDY    75  63  66 SE5       30.06R
IOWA CITY      CLEAR     66  61  84 W5        30.06R
FORT DODGE     CLEAR     64  59  82 CALM      30.08S
$$

...NORTHERN ILLINOIS...


CITY           SKY/WX    TMP DP  RH WIND       PRES   REMARKS
CHICAGO-OHARE  CLEAR     72  52  49 NW6       29.97S
CHICAGO-MIDWAY CLEAR     75  50  41 W7        29.97S
MOLINE         CLEAR     66  59  78 W3        30.03R
ROCKFORD       PTCLDY    67  53  61 CALM      30.02R
PEORIA         CLEAR     75  59  57 NW5       30.03S
$$

NOTE: "FAIR" INDICATES FEW OR NO CLOUDS BELOW 12,000 FEET WITH NO
SIGNIFICANT WEATHER AND/OR OBSTRUCTIONS TO VISIBILITY. WIND
SPEEDS ARE IN MILES-PER-HOUR.



USA.gov is the U.S. government's official web portal to all federal, state and local government web resources and services.